Location: Poughquag
(41.6090°N, 73.6820°W)
Time: 03:01:57
(UTC-04:00)

Transit 4A - Visible Passes

Search period start: 15 October 2019 00:00
Search period end: 25 October 2019 00:00
Orbit: 866 x 978 km, 66.8° (Epoch: 14 October)

Date Brightness Start Highest point End Pass type
(mag) Time Alt. Az. Time Alt. Az. Time Alt. Az.
15 Oct 8.8 06:11:27 10° S 06:17:39 56° ESE 06:23:46 10° NE visible
16 Oct 10.8 04:38:55 10° SE 04:41:31 13° E 04:44:05 10° ENE visible
16 Oct 8.1 06:20:34 10° SSW 06:26:56 82° ESE 06:33:13 10° NNE visible
17 Oct 10.4 04:46:07 10° SSE 04:50:31 20° ESE 04:54:54 10° ENE visible
17 Oct 8.0 06:29:57 10° SW 06:36:18 71° WNW 06:42:33 10° NNE visible
18 Oct 9.7 04:54:13 10° SSE 04:59:37 30° ESE 05:04:57 10° NE visible
18 Oct 8.2 06:39:34 10° SW 06:45:43 50° NW 06:51:48 10° NNE visible
19 Oct 9.0 05:02:49 10° S 05:08:47 44° ESE 05:14:41 10° NE visible
20 Oct 8.3 05:11:44 10° SSW 05:18:01 65° ESE 05:24:13 10° NE visible
21 Oct 10.4 03:38:50 11° SE 03:41:46 15° ESE 03:45:09 10° ENE visible
21 Oct 7.9 05:22:27 18° SSW 05:27:19 88° WNW 05:33:36 10° NNE visible
22 Oct 9.8 03:49:22 21° SE 03:50:49 23° ESE 03:55:35 10° ENE visible
22 Oct 7.9 05:32:58 25° SW 05:36:42 62° WNW 05:42:54 10° NNE visible
23 Oct 9.2 03:59:38 34° ESE 03:59:56 34° ESE 04:05:30 10° NE visible
23 Oct 8.3 05:43:13 27° WSW 05:46:10 44° NW 05:52:07 10° NNE visible
24 Oct 8.7 04:09:41 49° E 04:09:41 49° E 04:15:09 10° NE visible
24 Oct 8.7 05:53:16 24° W 05:55:44 32° NW 06:01:14 10° NNE visible
